Meteo pe oră la Abin

Astăzi, 29 Iulie, Joi

Timp Temperatura Precipitaţii Vânt Presiune Umiditate
00:00 +18°C° 0 mm 3 m/s 741 mmHg 96%
01:00 +18°C° 0 mm 3 m/s 740 mmHg 96%
02:00 +17°C° 0 mm 3 m/s 740 mmHg 96%
03:00 +18°C° 0.1 mm 3 m/s 740 mmHg 96%
04:00 +18°C° 0.1 mm 3 m/s 740 mmHg 96%
05:00 +18°C° 0.1 mm 2 m/s 740 mmHg 96%
06:00 +20°C° 0 mm 3 m/s 740 mmHg 89%
07:00 +22°C° 0 mm 3 m/s 740 mmHg 82%
08:00 +25°C° 0 mm 3 m/s 740 mmHg 76%
09:00 +26°C° 0.1 mm 3 m/s 740 mmHg 68%
10:00 +27°C° 0.1 mm 4 m/s 740 mmHg 60%
11:00 +29°C° 0.1 mm 4 m/s 740 mmHg 53%
12:00 +29°C° 0 mm 4 m/s 739 mmHg 52%
13:00 +29°C° 0 mm 3 m/s 739 mmHg 51%
14:00 +29°C° 0 mm 3 m/s 739 mmHg 49%
15:00 +28°C° 0 mm 3 m/s 739 mmHg 53%
16:00 +28°C° 0 mm 2 m/s 739 mmHg 56%
17:00 +27°C° 0 mm 2 m/s 738 mmHg 59%
18:00 +26°C° 0 mm 2 m/s 738 mmHg 61%
19:00 +25°C° 0 mm 1 m/s 738 mmHg 64%
20:00 +24°C° 0 mm 1 m/s 738 mmHg 66%
21:00 +23°C° 0 mm 1 m/s 738 mmHg 68%
22:00 +21°C° 0 mm 2 m/s 738 mmHg 70%
23:00 +20°C° 0 mm 2 m/s 738 mmHg 72%

Mâine, 30 Iulie, Vineri

Timp Temperatura Precipitaţii Vânt Presiune Umiditate
00:00 +20°C° 0 mm 2 m/s 738 mmHg 75%
01:00 +20°C° 0 mm 2 m/s 738 mmHg 78%
02:00 +19°C° 0 mm 2 m/s 738 mmHg 81%
03:00 +19°C° 0.5 mm 2 m/s 738 mmHg 85%
04:00 +19°C° 0.5 mm 2 m/s 738 mmHg 89%
05:00 +20°C° 0.5 mm 1 m/s 738 mmHg 94%
06:00 +20°C° 0 mm 2 m/s 738 mmHg 90%
07:00 +21°C° 0 mm 2 m/s 738 mmHg 87%
08:00 +22°C° 0 mm 3 m/s 738 mmHg 83%
09:00 +24°C° 0.1 mm 3 m/s 738 mmHg 78%
10:00 +25°C° 0.1 mm 3 m/s 738 mmHg 72%
11:00 +26°C° 0.1 mm 4 m/s 738 mmHg 66%
12:00 +27°C° 0 mm 4 m/s 738 mmHg 63%
13:00 +27°C° 0 mm 4 m/s 738 mmHg 61%
14:00 +28°C° 0 mm 4 m/s 738 mmHg 58%
15:00 +27°C° 0.1 mm 4 m/s 738 mmHg 61%
16:00 +27°C° 0.1 mm 4 m/s 738 mmHg 64%
17:00 +26°C° 0.1 mm 4 m/s 738 mmHg 67%
18:00 +25°C° 0 mm 3 m/s 738 mmHg 68%
19:00 +24°C° 0 mm 3 m/s 738 mmHg 70%
20:00 +23°C° 0 mm 2 m/s 738 mmHg 71%
21:00 +21°C° 0 mm 2 m/s 738 mmHg 73%
22:00 +19°C° 0 mm 2 m/s 739 mmHg 75%
23:00 +18°C° 0 mm 2 m/s 739 mmHg 77%

Poimâine, 31 Iulie, Sâmbătă

Timp Temperatura Precipitaţii Vânt Presiune Umiditate
00:00 +18°C° 0 mm 2 m/s 739 mmHg 78%
01:00 +17°C° 0 mm 3 m/s 739 mmHg 80%
02:00 +17°C° 0 mm 3 m/s 739 mmHg 82%
03:00 +17°C° 0 mm 3 m/s 739 mmHg 80%
04:00 +17°C° 0 mm 3 m/s 739 mmHg 78%
05:00 +18°C° 0 mm 3 m/s 739 mmHg 76%
06:00 +20°C° 0 mm 3 m/s 739 mmHg 69%
07:00 +22°C° 0 mm 4 m/s 739 mmHg 62%
08:00 +25°C° 0 mm 5 m/s 739 mmHg 55%
09:00 +26°C° 0 mm 5 m/s 739 mmHg 52%
10:00 +27°C° 0 mm 5 m/s 740 mmHg 49%
11:00 +28°C° 0 mm 6 m/s 740 mmHg 47%
12:00 +27°C° 0 mm 5 m/s 740 mmHg 48%
13:00 +27°C° 0 mm 5 m/s 739 mmHg 48%
14:00 +27°C° 0 mm 4 m/s 739 mmHg 49%
15:00 +27°C° 0 mm 4 m/s 739 mmHg 50%
16:00 +27°C° 0 mm 4 m/s 739 mmHg 51%
17:00 +27°C° 0 mm 3 m/s 739 mmHg 52%
18:00 +25°C° 0 mm 3 m/s 740 mmHg 58%
19:00 +24°C° 0 mm 3 m/s 740 mmHg 63%
20:00 +21°C° 0 mm 2 m/s 740 mmHg 68%
21:00 +20°C° 0 mm 2 m/s 740 mmHg 71%
22:00 +20°C° 0 mm 1 m/s 740 mmHg 74%
23:00 +19°C° 0 mm 1 m/s 741 mmHg 77%

1 August, Duminică

Timp Temperatura Precipitaţii Vânt Presiune Umiditate
00:00 +19°C° 0 mm 1 m/s 741 mmHg 78%
01:00 +19°C° 0 mm 1 m/s 741 mmHg 79%
02:00 +18°C° 0 mm 1 m/s 741 mmHg 81%
03:00 +18°C° 0 mm 2 m/s 741 mmHg 80%
04:00 +18°C° 0 mm 2 m/s 741 mmHg 79%
05:00 +18°C° 0 mm 2 m/s 741 mmHg 78%
06:00 +20°C° 0 mm 3 m/s 741 mmHg 72%
07:00 +23°C° 0 mm 4 m/s 741 mmHg 65%
08:00 +26°C° 0 mm 4 m/s 741 mmHg 59%
09:00 +28°C° 0 mm 5 m/s 741 mmHg 54%
10:00 +29°C° 0 mm 5 m/s 741 mmHg 48%
11:00 +32°C° 0 mm 6 m/s 741 mmHg 43%
12:00 +32°C° 0 mm 6 m/s 741 mmHg 41%
13:00 +33°C° 0 mm 7 m/s 740 mmHg 39%
14:00 +33°C° 0 mm 7 m/s 740 mmHg 37%
15:00 +33°C° 0 mm 7 m/s 740 mmHg 40%
16:00 +32°C° 0 mm 6 m/s 740 mmHg 42%
17:00 +30°C° 0 mm 5 m/s 739 mmHg 45%
18:00 +28°C° 0.1 mm 4 m/s 739 mmHg 53%
19:00 +26°C° 0.1 mm 3 m/s 740 mmHg 60%
20:00 +24°C° 0.1 mm 2 m/s 740 mmHg 68%
21:00 +24°C° 0.1 mm 2 m/s 740 mmHg 75%
22:00 +23°C° 0.1 mm 2 m/s 740 mmHg 82%
23:00 +22°C° 0.1 mm 1 m/s 740 mmHg 89%

2 August, Luni

Timp Temperatura Precipitaţii Vânt Presiune Umiditate
00:00 +21°C° 0.1 mm 1 m/s 740 mmHg 90%
01:00 +21°C° 0.1 mm 1 m/s 740 mmHg 91%
02:00 +21°C° 0.1 mm 1 m/s 740 mmHg 91%
03:00 +21°C° 0 mm 1 m/s 740 mmHg 91%
04:00 +21°C° 0 mm 1 m/s 740 mmHg 91%
05:00 +21°C° 0 mm 1 m/s 740 mmHg 91%
06:00 +23°C° 0 mm 2 m/s 740 mmHg 85%
07:00 +24°C° 0 mm 2 m/s 740 mmHg 79%
08:00 +26°C° 0 mm 3 m/s 739 mmHg 73%
09:00 +28°C° 0.1 mm 4 m/s 739 mmHg 65%
10:00 +29°C° 0.1 mm 5 m/s 739 mmHg 57%
11:00 +32°C° 0.1 mm 5 m/s 738 mmHg 49%
12:00 +32°C° 0 mm 6 m/s 738 mmHg 47%
13:00 +33°C° 0 mm 6 m/s 738 mmHg 44%
14:00 +33°C° 0 mm 7 m/s 737 mmHg 42%
15:00 +32°C° 0.6 mm 6 m/s 737 mmHg 49%
16:00 +29°C° 0.6 mm 5 m/s 737 mmHg 57%
17:00 +28°C° 0.6 mm 4 m/s 737 mmHg 64%
18:00 +26°C° 1.1 mm 4 m/s 737 mmHg 72%
19:00 +24°C° 1.1 mm 3 m/s 736 mmHg 80%
20:00 +21°C° 1.1 mm 3 m/s 736 mmHg 88%
21:00 +21°C° 2.5 mm 4 m/s 736 mmHg 89%
22:00 +20°C° 2.5 mm 5 m/s 736 mmHg 91%
23:00 +19°C° 2.5 mm 6 m/s 737 mmHg 92%

3 August, Marţi

Timp Temperatura Precipitaţii Vânt Presiune Umiditate
00:00 +19°C° 0.3 mm 5 m/s 737 mmHg 94%
01:00 +19°C° 0.3 mm 4 m/s 737 mmHg 95%
02:00 +18°C° 0.3 mm 4 m/s 737 mmHg 97%
03:00 +18°C° 0 mm 4 m/s 737 mmHg 96%
04:00 +17°C° 0 mm 4 m/s 738 mmHg 95%
05:00 +17°C° 0 mm 4 m/s 738 mmHg 94%
06:00 +16°C° 0 mm 5 m/s 739 mmHg 89%
07:00 +17°C° 0 mm 5 m/s 740 mmHg 84%
08:00 +17°C° 0 mm 5 m/s 740 mmHg 79%
09:00 +20°C° 0 mm 5 m/s 741 mmHg 70%
10:00 +21°C° 0 mm 5 m/s 741 mmHg 62%
11:00 +23°C° 0 mm 5 m/s 741 mmHg 53%
12:00 +23°C° 0 mm 5 m/s 741 mmHg 50%
13:00 +25°C° 0 mm 5 m/s 742 mmHg 47%
14:00 +25°C° 0 mm 5 m/s 742 mmHg 44%
15:00 +25°C° 0 mm 5 m/s 742 mmHg 48%
16:00 +23°C° 0 mm 5 m/s 742 mmHg 52%
17:00 +22°C° 0 mm 5 m/s 743 mmHg 56%
18:00 +21°C° 0 mm 4 m/s 743 mmHg 61%
19:00 +19°C° 0 mm 3 m/s 744 mmHg 66%
20:00 +18°C° 0 mm 2 m/s 744 mmHg 71%
21:00 +18°C° 0 mm 2 m/s 744 mmHg 73%
22:00 +18°C° 0 mm 1 m/s 745 mmHg 74%
23:00 +18°C° 0 mm 1 m/s 745 mmHg 76%
Arată mai mult

Formular de consimțământ

Meteoprog și furnizorii noștri de servicii pot stoca și accesa date personale, precum cookies, identificatori de dispozitiv sau alte tehnologii similare pe dispozitivul dumneavoastră și procesa astfel de date pentru a personaliza conținutul și reclamele, dar și pentru a oferi caracteristici de social media și pentru a analiza traficul.

  • Stocarea și/sau accesarea informațiilor pe dispozitivul dumneavoastră

    Cookies, identificatori de dispozitiv sau alte informații pot fi stocate sau accesate pe dispozitiv în scopurile indicate mai sus.

  • Reclame și conținut personalizat, evaluarea reclamelor și a conținutului, informații despre audiențe și dezvoltarea produselor

    Reclamele și conținutul pot fi personalizate pe baza unui profil. Pot fi adăugate date suplimentare pentru a personaliza mai bine reclamele și conținutul. Performanța reclamelor și conținutului poate fi măsurată. Pot fi obținute informații despre utilizatorii care au văzut reclamele și conținutul. Aceste date pot fi utilizate pentru a dezvolta sau îmbunătăți experiența utilizatorilor, sistemele și software-ul.

Dând clic pe ‘Sunt de acord’, permiteți utilizarea cookie-urilor menționate, a identificatorilor de dispozitiv, balizelor web sau altor tehnologii similare. Setările pot fi modificate din browser-ul dispozitivului dumneavoastră.

În anumite scopuri, interesele legitime pot prima asupra consimțământului. Puteți citi mai multe informații în acest sens în Politica privind Confidențialitatea Datelor și Cookie.